Location: Chenereilles
(45.4866°N, 4.0790°E)
Time: 23:41:06
(UTC+00:00)

Cosmos 1869 - Pass Details

Date: 12 November 2019
Orbit: 529 x 554 km, 82.5° (Epoch: 07 December)

Event Time Altitude Azimuth Distance (km) Brightness Sun altitude
Rises 17:04:41 0° 160° (SSE) 2,693 6.8 -8.6°
Reaches altitude 10° 17:07:04 10° 148° (SSE) 1,802 5.8 -9.0°
Maximum altitude 17:10:25 27° 90° (E) 1,061 4.2 -9.6°
Drops below altitude 10° 17:13:47 10° 32° (NNE) 1,803 5.5 -10.2°
Enters shadow 17:15:50 - 21° (NNE) 2,571 6.4 -10.5°
